{"data":{"norad_id":37836,"epoch":"2026-05-25T03:49:09.327072Z","epoch_age_seconds":54487,"freshness":"FRESH","line1":"1 37836U 11057A   26145.15913573  .00000101  00000+0  00000+0 0  9993","line2":"2 37836   0.0459 359.2899 0005913  70.2259 246.5246  1.00270678  7103","mean_motion":1.00270678,"eccentricity":0.0005913,"inclination_deg":0.0459,"raan_deg":359.2899,"arg_perigee_deg":70.2259,"mean_anomaly_deg":246.5246,"bstar":0,"rev_number":710,"period_min":1436.112758707,"perigee_km":35761.973106821,"apogee_km":35811.837485841,"semimajor_km":42165.042296331,"source":"CELESTRAK","updated_at":"2026-05-25T13:38:13.905714Z"}}